Bettles, AK

10:49 AM AKDT on May 25, 2017 (GMT -0800)
Bettles

Weather History for PABT - December, 2013

Change the Weather History Date:

Monday, December 9, 2013

  Actual Average Record
Temperature  
Mean Temperature 11 °F -  
Max Temperature 19 °F -3 °F 38 °F (1960)
Min Temperature 3 °F -16 °F -56 °F (1964)
Degree Days  
Heating Degree Days 54    
Moisture  
Dew Point 6 °F    
Average Humidity 87    
Maximum Humidity 93    
Minimum Humidity 76    
Precipitation  
Precipitation 0.01 in - - ()
Snow  
Snow 0.00 in - - ()
Snow Depth 18.00 in    
Sea Level Pressure  
Sea Level Pressure 30.27 in    
Wind  
Wind Speed 2 mph (NW)    
Max Wind Speed 5 mph    
Max Gust Speed -    
Visibility 6 miles    
Events Snow    
Averages and records for this station are not official NWS values.
T = Trace of Precipitation, MM = Missing Value Source: NWS Daily Summary

Daily Weather History Graph

Daily Weather History Graph

Search for Another Location

Airport or City:

Trip Planner

Search our weather history database for the weather conditions in past years. The results will help you decide how hot, cold, wet, or windy it might be!

Date:

Astronomy

Dec. 09, 2013 Rise Set
Actual Time 11:46 AM AKST 2:10 PM AKST
Civil Twilight 9:56 AM AKST 4:00 PM AKST
Nautical Twilight 8:36 AM AKST 5:20 PM AKST
Astronomical Twilight 7:29 AM AKST 6:27 PM AKST
Moon 1:15 PM AKST (12/9) 12:25 AM AKST (12/9)
Length of Visible Light 6h 03m
Length of Day
2h 24m
First Quarter, 52% of the Moon is Illuminated
Dec 9
First Quarter
Dec 17
Full
Dec 25
Last Quarter
Jan 1
New
Jan 7
First Quarter

Hourly Weather History & Observations

Time (AKST) Temp. Windchill Dew Point Humidity Pressure Visibility Wind Dir Wind Speed Gust Speed Precip Events Conditions
12:53 AM 19.0 °F - 16.0 °F 88% 30.30 in 2.0 mi Calm Calm - N/A   Overcast
1:20 AM 19.4 °F - 15.8 °F 86% 30.24 in 1.5 mi Calm Calm - N/A   Overcast
1:53 AM 18.0 °F - 16.0 °F 92% 30.30 in 1.2 mi Calm Calm - N/A   Overcast
2:00 AM 17.6 °F - 15.8 °F 93% 30.24 in 3.0 mi Calm Calm - N/A   Overcast
2:53 AM 16.0 °F - 14.0 °F 92% 30.31 in 8.0 mi Calm Calm - N/A   Mostly Cloudy
3:50 AM 15.8 °F - 12.2 °F 86% 30.25 in 1.5 mi Calm Calm - N/A   Overcast
3:53 AM 15.1 °F - 12.9 °F 91% 30.31 in 1.5 mi Calm Calm - N/A   Overcast
4:29 AM 15.8 °F 10.2 °F 12.2 °F 86% 30.26 in 1.5 mi WNW 3.5 mph - N/A   Overcast
4:49 AM 14.0 °F 8.2 °F 12.2 °F 93% 30.26 in 3.0 mi NW 3.5 mph - N/A   Overcast
4:50 AM 14.0 °F 8.2 °F 12.2 °F 93% 30.26 in 2.5 mi NW 3.5 mph - N/A   Overcast
4:53 AM 14.0 °F 8.2 °F 12.0 °F 92% 30.32 in 2.5 mi NW 3.5 mph - N/A   Overcast
5:53 AM 12.9 °F 6.9 °F 10.0 °F 88% 30.32 in 2.5 mi NW 3.5 mph - N/A   Overcast
6:02 AM 12.2 °F 6.1 °F 10.4 °F 92% 30.26 in 1.8 mi NW 3.5 mph - N/A   Light Freezing Drizzle
6:53 AM 12.0 °F 5.9 °F 10.0 °F 92% 30.32 in 1.5 mi NW 3.5 mph - N/A   Light Freezing Drizzle
7:05 AM 12.2 °F 6.1 °F 10.4 °F 92% 30.26 in 2.0 mi NW 3.5 mph - N/A   Light Freezing Drizzle
7:36 AM 10.4 °F 2.2 °F 8.6 °F 92% 30.26 in 4.0 mi NNW 4.6 mph - N/A   Light Freezing Drizzle
7:53 AM 10.9 °F 4.7 °F 8.1 °F 88% 30.32 in 3.0 mi NW 3.5 mph - N/A   Light Freezing Drizzle
8:34 AM 10.4 °F - 8.6 °F 92% 30.26 in 1.5 mi Calm Calm - N/A   Light Freezing Drizzle
8:53 AM 10.0 °F - 7.0 °F 87% 30.31 in 1.5 mi Calm Calm - N/A   Light Freezing Drizzle
9:53 AM 8.1 °F -0.5 °F 5.0 °F 87% 30.32 in 3.0 mi NW 4.6 mph - N/A   Light Freezing Drizzle
10:36 AM 6.8 °F -2.0 °F 3.2 °F 85% 30.26 in 2.5 mi NNW 4.6 mph - N/A   Light Freezing Drizzle
10:53 AM 7.0 °F 0.1 °F 3.9 °F 87% 30.32 in 10.0 mi NNW 3.5 mph - N/A   Mostly Cloudy
11:34 AM 5.0 °F -2.1 °F 1.4 °F 85% 30.26 in 10.0 mi NNW 3.5 mph - N/A   Scattered Clouds
11:53 AM 3.9 °F - 1.0 °F 88% 30.32 in 10.0 mi Calm Calm - N/A   Scattered Clouds
12:53 PM 3.9 °F -5.3 °F 1.0 °F 88% 30.32 in 10.0 mi NNW 4.6 mph - N/A   Mostly Cloudy
1:09 PM 3.2 °F - 1.4 °F 92% 30.25 in 10.0 mi Calm Calm - N/A   Mostly Cloudy
1:53 PM 5.0 °F - 1.0 °F 84% 30.31 in 8.0 mi Calm Calm - N/A   Overcast
2:26 PM 5.0 °F -2.1 °F 1.4 °F 85% 30.24 in 10.0 mi North 3.5 mph - N/A   Overcast
2:53 PM 5.0 °F -2.1 °F 1.0 °F 84% 30.29 in 10.0 mi North 3.5 mph - N/A   Overcast
3:53 PM 6.1 °F -0.9 °F 1.9 °F 83% 30.27 in 8.0 mi NNW 3.5 mph - N/A Snow Light Snow
4:00 PM 6.8 °F - 1.4 °F 79% 30.20 in 8.0 mi Calm Calm - N/A Snow Light Snow
4:53 PM 7.0 °F - 3.0 °F 84% 30.25 in 7.0 mi Calm Calm - N/A Snow Light Snow
5:53 PM 7.0 °F - 3.0 °F 84% 30.26 in 3.0 mi Calm Calm - N/A Snow Light Snow
6:53 PM 7.0 °F - 3.0 °F 84% 30.27 in 7.0 mi Calm Calm - N/A   Overcast
7:07 PM 6.8 °F -2.0 °F 1.4 °F 79% 30.20 in 7.0 mi NW 4.6 mph - N/A   Overcast
7:53 PM 6.1 °F - 1.9 °F 83% 30.27 in 7.0 mi Calm Calm - N/A   Overcast
8:53 PM 5.0 °F -4.1 °F 1.0 °F 84% 30.28 in 7.0 mi NW 4.6 mph - N/A   Overcast
9:14 PM 3.2 °F -4.2 °F -0.4 °F 85% 30.21 in 7.0 mi NNW 3.5 mph - N/A   Overcast
9:53 PM 3.9 °F -3.4 °F -0.0 °F 84% 30.28 in 7.0 mi NNW 3.5 mph - N/A   Overcast
10:29 PM 3.2 °F -4.2 °F 1.4 °F 92% 30.22 in 5.0 mi NNW 3.5 mph - N/A   Overcast
10:49 PM 5.0 °F - 1.4 °F 85% 30.22 in 10.0 mi Calm Calm - N/A   Overcast
10:53 PM 5.0 °F - 1.0 °F 84% 30.29 in 7.0 mi Calm Calm - N/A   Overcast
11:20 PM 5.0 °F - 1.4 °F 85% 30.23 in 10.0 mi Calm Calm - N/A   Overcast
11:53 PM 5.0 °F -2.1 °F 1.0 °F 84% 30.30 in 10.0 mi NNW 3.5 mph - N/A   Overcast